YAOGAN-31 C

导读

YAOGAN-31 C(遥感三十一号C组)是中国研发的遥感卫星,于2018年4月10日发射升空,成功进入预定轨道。该卫星主要用于开展空间电磁环境探测任务,同时承担相关空间技术试验验证工作,是我国遥感卫星体系中开展技术验证与环境探测的重要节点,将为我国空间科学发展和航天技术积累提供关键数据支撑。

基本信息
目录编号:
43277
目录名称:
YAOGAN-31 C
国际标识:
2018-034C
轨道中心:
EARTH
卫星名称:
YAOGAN-31 C
卫星全名:
--
卫星状态:
在轨 (已飞行3076 天)
发射日期:
2018-04-10 UTC
国别 :
中国 (CN)
星等 :
--
该卫星已列入 空间交会检测服务 Space Conjunction Data Service (SCDS) ,当前飞行风险评估等级: 无高风险
轨道信息
数据来源 国际轨道数据 AOE轨道数据
星历时间 2026-09-11T07:40:13+0800
7小时前
查看轨道信息
2026-09-10T17:00:00+0800
22小时前
查看轨道信息
半长轴 7467.185km 7467.19km
偏心率 0.0282982 0.0283353
轨道倾角 63.393° 63.396°
近地点辐角 7.375° 7.386°
升交点赤经 229.882° 231.456°
平近点角 353.131° 272.374°
近地点 877.74km 877.467km
远地点 1300.356km 1300.639km
周期 107.027分钟 107.028分钟
每日圈数 13.454496 13.454482
详细信息
使用方式:
暂无
2D轨道图
3D轨道图
轨道高度分析图
轨道倾角分析图
轨道综合分析图
查看轨道综合分析图
与全量物体交会距离演化趋势
与全量物体交会风险概率演化趋势